When you browse on this site, cookies collect data to enhance your experience and personalize the content and advertising you see.
Visit our Privacy Policy to learn more. By continuing to use the site, you agree to this use of cookies and data.
  • In Switzerland
  • List of Countries
  • For 7 days
  • Water Temperature
  • Satellite Maps
  • Weather Map
  • Weather Widgets
  • user-avatar
    Login

    Hourly Weather Tovste

    Today, 23 July, Tuesday

    Time Temperature Precipitation Wind Pressure Humidity
    00:00 +18°C° 0.2 mm 2 mps 744 mmHg 96%
    01:00 +17°C° 0.2 mm 2 mps 744 mmHg 96%
    02:00 +17°C° 0 mm 2 mps 744 mmHg 97%
    03:00 +17°C° 0 mm 2 mps 744 mmHg 96%
    04:00 +17°C° 0 mm 2 mps 744 mmHg 96%
    05:00 +16°C° 0 mm 2 mps 744 mmHg 95%
    06:00 +18°C° 0 mm 2 mps 744 mmHg 90%
    07:00 +19°C° 0 mm 3 mps 744 mmHg 85%
    08:00 +20°C° 0 mm 3 mps 744 mmHg 81%
    09:00 +21°C° 0 mm 3 mps 744 mmHg 76%
    10:00 +22°C° 0 mm 3 mps 744 mmHg 71%
    11:00 +24°C° 0 mm 3 mps 744 mmHg 66%
    12:00 +23°C° 0.1 mm 4 mps 744 mmHg 66%
    13:00 +25°C° 0.1 mm 4 mps 743 mmHg 65%
    14:00 +25°C° 0.1 mm 4 mps 743 mmHg 65%
    15:00 +23°C° 0.6 mm 4 mps 743 mmHg 68%
    16:00 +22°C° 0.6 mm 4 mps 743 mmHg 72%
    17:00 +22°C° 0.6 mm 4 mps 743 mmHg 76%
    18:00 +20°C° 0.1 mm 3 mps 743 mmHg 81%
    19:00 +19°C° 0.1 mm 3 mps 743 mmHg 85%
    20:00 +17°C° 0.1 mm 2 mps 743 mmHg 90%
    21:00 +16°C° 0 mm 2 mps 742 mmHg 91%
    22:00 +16°C° 0 mm 2 mps 742 mmHg 92%
    23:00 +15°C° 0 mm 2 mps 742 mmHg 93%

    Tomorrow, 24 July, Wednesday

    Time Temperature Precipitation Wind Pressure Humidity
    00:00 +15°C° 0 mm 2 mps 742 mmHg 94%
    01:00 +14°C° 0 mm 1 mps 742 mmHg 94%
    02:00 +14°C° 0 mm 1 mps 742 mmHg 94%
    03:00 +14°C° 0 mm 1 mps 742 mmHg 94%
    04:00 +14°C° 0 mm 1 mps 741 mmHg 94%
    05:00 +14°C° 0 mm 1 mps 741 mmHg 94%
    06:00 +15°C° 0 mm 1 mps 741 mmHg 89%
    07:00 +18°C° 0 mm 1 mps 741 mmHg 83%
    08:00 +20°C° 0 mm 1 mps 741 mmHg 78%
    09:00 +20°C° 0.4 mm 1 mps 741 mmHg 76%
    10:00 +20°C° 0.4 mm 2 mps 741 mmHg 75%
    11:00 +20°C° 0.4 mm 2 mps 741 mmHg 73%
    12:00 +21°C° 1.1 mm 2 mps 741 mmHg 71%
    13:00 +23°C° 1.1 mm 1 mps 741 mmHg 69%
    14:00 +23°C° 1.1 mm 1 mps 741 mmHg 67%
    15:00 +23°C° 0.8 mm 1 mps 741 mmHg 69%
    16:00 +23°C° 0.8 mm 2 mps 741 mmHg 70%
    17:00 +23°C° 0.8 mm 2 mps 741 mmHg 72%
    18:00 +20°C° 0.2 mm 2 mps 741 mmHg 77%
    19:00 +19°C° 0.2 mm 2 mps 741 mmHg 83%
    20:00 +17°C° 0.2 mm 2 mps 741 mmHg 89%
    21:00 +17°C° 0 mm 2 mps 741 mmHg 90%
    22:00 +16°C° 0 mm 2 mps 741 mmHg 90%
    23:00 +16°C° 0 mm 2 mps 741 mmHg 91%

    Day after tomorrow, 25 July, Thursday

    Time Temperature Precipitation Wind Pressure Humidity
    00:00 +16°C° 0 mm 2 mps 741 mmHg 91%
    01:00 +15°C° 0 mm 2 mps 741 mmHg 92%
    02:00 +15°C° 0 mm 2 mps 741 mmHg 92%
    03:00 +15°C° 0 mm 2 mps 741 mmHg 93%
    04:00 +14°C° 0 mm 3 mps 742 mmHg 94%
    05:00 +14°C° 0 mm 3 mps 742 mmHg 95%
    06:00 +16°C° 0 mm 3 mps 742 mmHg 91%
    07:00 +18°C° 0 mm 3 mps 742 mmHg 87%
    08:00 +19°C° 0 mm 3 mps 742 mmHg 83%
    09:00 +20°C° 0.3 mm 3 mps 742 mmHg 79%
    10:00 +21°C° 0.3 mm 3 mps 742 mmHg 76%
    11:00 +22°C° 0.3 mm 3 mps 742 mmHg 73%
    12:00 +22°C° 1.1 mm 3 mps 742 mmHg 70%
    13:00 +23°C° 1.1 mm 4 mps 742 mmHg 67%
    14:00 +25°C° 1.1 mm 4 mps 742 mmHg 64%
    15:00 +23°C° 0.5 mm 4 mps 742 mmHg 67%
    16:00 +23°C° 0.5 mm 4 mps 742 mmHg 69%
    17:00 +23°C° 0.5 mm 4 mps 742 mmHg 72%
    18:00 +21°C° 0.2 mm 4 mps 742 mmHg 77%
    19:00 +20°C° 0.2 mm 4 mps 742 mmHg 83%
    20:00 +18°C° 0.2 mm 4 mps 742 mmHg 88%
    21:00 +17°C° 0 mm 4 mps 742 mmHg 90%
    22:00 +17°C° 0 mm 3 mps 742 mmHg 91%
    23:00 +16°C° 0 mm 3 mps 742 mmHg 93%

    26 July, Friday

    Time Temperature Precipitation Wind Pressure Humidity
    00:00 +16°C° 0 mm 3 mps 742 mmHg 93%
    01:00 +14°C° 0 mm 3 mps 742 mmHg 94%
    02:00 +14°C° 0 mm 3 mps 741 mmHg 94%
    03:00 +14°C° 0 mm 3 mps 741 mmHg 94%
    04:00 +14°C° 0 mm 3 mps 741 mmHg 94%
    05:00 +15°C° 0 mm 2 mps 741 mmHg 94%
    06:00 +17°C° 0 mm 2 mps 741 mmHg 89%
    07:00 +18°C° 0 mm 2 mps 741 mmHg 84%
    08:00 +20°C° 0 mm 2 mps 741 mmHg 79%
    09:00 +21°C° 0.1 mm 2 mps 741 mmHg 74%
    10:00 +23°C° 0.1 mm 2 mps 741 mmHg 68%
    11:00 +25°C° 0.1 mm 3 mps 741 mmHg 63%
    12:00 +25°C° 0.2 mm 3 mps 741 mmHg 61%
    13:00 +26°C° 0.2 mm 3 mps 741 mmHg 59%
    14:00 +26°C° 0.2 mm 3 mps 741 mmHg 58%
    15:00 +26°C° 0.1 mm 3 mps 741 mmHg 61%
    16:00 +25°C° 0.1 mm 3 mps 741 mmHg 64%
    17:00 +25°C° 0.1 mm 3 mps 741 mmHg 66%
    18:00 +23°C° 0.3 mm 2 mps 741 mmHg 73%
    19:00 +21°C° 0.3 mm 2 mps 741 mmHg 80%
    20:00 +19°C° 0.3 mm 2 mps 741 mmHg 86%
    21:00 +18°C° 0.1 mm 2 mps 740 mmHg 89%
    22:00 +17°C° 0.1 mm 2 mps 740 mmHg 92%
    23:00 +17°C° 0.1 mm 3 mps 740 mmHg 95%

    27 July, Saturday

    Time Temperature Precipitation Wind Pressure Humidity
    00:00 +16°C° 0 mm 2 mps 740 mmHg 96%
    01:00 +16°C° 0 mm 2 mps 740 mmHg 97%
    02:00 +15°C° 0 mm 2 mps 740 mmHg 98%
    03:00 +15°C° 0 mm 2 mps 739 mmHg 98%
    04:00 +15°C° 0 mm 2 mps 739 mmHg 98%
    05:00 +16°C° 0 mm 1 mps 739 mmHg 98%
    06:00 +17°C° 0 mm 2 mps 739 mmHg 95%
    07:00 +18°C° 0 mm 2 mps 739 mmHg 91%
    08:00 +19°C° 0 mm 2 mps 739 mmHg 88%
    09:00 +20°C° 0 mm 2 mps 740 mmHg 83%
    10:00 +23°C° 0 mm 2 mps 740 mmHg 77%
    11:00 +24°C° 0 mm 2 mps 740 mmHg 71%
    12:00 +24°C° 0.1 mm 2 mps 740 mmHg 69%
    13:00 +25°C° 0.1 mm 2 mps 739 mmHg 66%
    14:00 +26°C° 0.1 mm 2 mps 739 mmHg 64%
    15:00 +25°C° 0.4 mm 2 mps 739 mmHg 67%
    16:00 +25°C° 0.4 mm 2 mps 739 mmHg 70%
    17:00 +25°C° 0.4 mm 3 mps 739 mmHg 73%
    18:00 +22°C° 0.2 mm 3 mps 739 mmHg 78%
    19:00 +21°C° 0.2 mm 2 mps 739 mmHg 83%
    20:00 +19°C° 0.2 mm 2 mps 739 mmHg 88%
    21:00 +19°C° 0 mm 2 mps 739 mmHg 90%
    22:00 +18°C° 0 mm 2 mps 738 mmHg 92%
    23:00 +18°C° 0 mm 2 mps 738 mmHg 94%

    28 July, Sunday

    Time Temperature Precipitation Wind Pressure Humidity
    00:00 +17°C° 0 mm 2 mps 738 mmHg 95%
    01:00 +17°C° 0 mm 2 mps 738 mmHg 95%
    02:00 +16°C° 0 mm 2 mps 738 mmHg 96%
    03:00 +16°C° 0 mm 2 mps 738 mmHg 96%
    04:00 +16°C° 0 mm 2 mps 738 mmHg 97%
    05:00 +16°C° 0 mm 2 mps 738 mmHg 97%
    06:00 +18°C° 0 mm 2 mps 738 mmHg 92%
    07:00 +19°C° 0 mm 2 mps 738 mmHg 88%
    08:00 +21°C° 0 mm 2 mps 738 mmHg 83%
    09:00 +23°C° 0 mm 2 mps 738 mmHg 78%
    10:00 +24°C° 0 mm 2 mps 738 mmHg 73%
    11:00 +25°C° 0 mm 2 mps 738 mmHg 68%
    12:00 +26°C° 0 mm 2 mps 737 mmHg 65%
    13:00 +26°C° 0 mm 2 mps 737 mmHg 63%
    14:00 +27°C° 0 mm 2 mps 737 mmHg 60%
    15:00 +27°C° 0.5 mm 2 mps 737 mmHg 63%
    16:00 +26°C° 0.5 mm 3 mps 737 mmHg 67%
    17:00 +26°C° 0.5 mm 3 mps 737 mmHg 71%
    18:00 +23°C° 0.8 mm 4 mps 737 mmHg 77%
    19:00 +21°C° 0.8 mm 5 mps 737 mmHg 84%
    20:00 +19°C° 0.8 mm 6 mps 737 mmHg 91%
    21:00 +17°C° 0 mm 6 mps 737 mmHg 91%
    22:00 +16°C° 0 mm 5 mps 738 mmHg 90%
    23:00 +15°C° 0 mm 5 mps 738 mmHg 90%
    Show more